Tracking 30923 objects as of 1-Jul-2025
HD Live streaming from Space Station
objects crossing your sky now

YAOGAN-30 P

Track YAOGAN-30 P now!
10-day predictions


NORAD ID: 44450
Int'l Code: 2019-045B
Perigee: 567.8 km
Apogee: 579.5 km
Inclination: 35.0 °
Period: 96.0 minutes
Semi major axis: 6944 km
RCS: Unknown
Launch date: July 26, 2019
Source: People's Republic of China (PRC)
Launch site: Xichang Space Center, China (XSC)
Your satellite tracking list
FENGYUN 4A
Track 1 satellite(s)




NASA's NSSDC Master Catalog

Two Line Element Set (TLE):
1 44450U 19045B   25181.79770752  .00001890  00000-0  15065-3 0  9995
2 44450  34.9934 307.3433 0008427 244.6187 115.3648 15.00118023323813
Source of the keplerian elements: AFSPC